Regional Weather Roundup
Issued by NWS

Home | Current Version | Previous Version | Text Only | Print | Product List | Glossary Off
Versions: 1 2 3 4 5 6 7 8 9 10 11 12 13 14 15 16 17 18 19 20 21 22 23 24 25 26 27 28 29 30 31 32 33 34 35 36 37 38 39 40 41 42 43 44 45 46 47 48 49 50

000
ASUS43 KDMX 171706
RWRIA

WEATHER ROUNDUP FOR IOWA
NATIONAL WEATHER SERVICE DES MOINES IA
1200 PM CDT TUE OCT 17 2017

NOTE: "FAIR" INDICATES FEW OR NO CLOUDS BELOW 12,000 FEET WITH NO
SIGNIFICANT WEATHER AND/OR OBSTRUCTIONS TO VISIBILITY.

* - THESE STATIONS ARE NOT NWS STATIONS...THUS NOT UNDER NWS
QUALITY CONTROL.  THEY ALSO DO NOT REPORT WEATHER SUCH
AS PRECIPITATION OR FOG.

IAZ001>003-012>014-020>022-031>034-043>046-171800-
   NORTHWEST IOWA

CITY           SKY/WX    TMP DP  RH WIND       PRES   REMARKS
CARROLL *      SUNNY     66  45  45 SW10G17   30.09F
CHEROKEE *     SUNNY     62  48  58 S3        30.06F
DENISON *      SUNNY     63  43  48 VRB6      30.10F
LE MARS *      SUNNY     64  45  48 S6        30.05F
ORANGE CITY *  SUNNY     66  48  52 S5        30.06S
SHELDON *      SUNNY     64  43  45 VRB6      30.04F
SIOUX CITY     SUNNY     63  46  54 SE6       30.07F
SPENCER        SUNNY     67  42  40 SW5       30.05F
STORM LAKE *   SUNNY     63  43  48 SW10      30.07F
$$

IAZ055>058-069>071-079>083-090>094-171800-
   SOUTHWEST IOWA

CITY           SKY/WX    TMP DP  RH WIND       PRES   REMARKS
ATLANTIC *     SUNNY     63  45  51 S12       30.11S
AUDUBON *      SUNNY     64  45  48 S5        30.11F
CLARINDA *     SUNNY     66  43  42 SW10G20   30.15F
COUNCIL BLFS * SUNNY     61  46  59 S12       30.10S
CRESTON *      SUNNY     66  43  42 SW17      30.14S
HARLAN  *      SUNNY     63  45  51 SW8G15    30.13F
LAMONI         SUNNY     66  45  46 SW16      30.15F
RED OAK *      SUNNY     64  45  48 SW13      30.12F
SHENANDOAH *   SUNNY     64  43  45 S10       30.12F
$$

IAZ047>049-059>061-072>074-084-171800-
   CENTRAL IOWA

CITY           SKY/WX    TMP DP  RH WIND       PRES   REMARKS
AMES           SUNNY     65  45  48 SW10      30.11S
ANKENY *       SUNNY     66  45  45 SW13      30.13S
BOONE *        SUNNY     64  43  45 SW12      30.09F
CHARITON *     SUNNY     64  43  45 SW14G21   30.15F
DES MOINES     MOSUNNY   67  42  40 SW14      30.12F
GRINNELL*      SUNNY     66  42  41 SW12G17   30.15S
KNOXVILLE *    SUNNY     66  41  39 S13       30.14S
MARSHALLTOWN   SUNNY     65  45  48 SW14      30.11F
NEWTON *       SUNNY     68  41  37 SW17      30.13F
PELLA *        SUNNY     66  42  41 SW10      30.16S
PERRY *          N/A     67  39  35 SW9       30.11S
$$

IAZ004>006-015-016-023>025-035-036-171800-
   NORTH CENTRAL IOWA

CITY           SKY/WX    TMP DP  RH WIND       PRES   REMARKS
ALGONA *       SUNNY     64  45  48 SW7       30.07S
CLARION *      SUNNY     64  45  48 SW9       30.08F
ESTHERVILLE    SUNNY     66  43  43 SW6       30.05R
FORT DODGE *   SUNNY     64  46  52 S10       30.08F
MASON CITY     SUNNY     63  44  50 SW7       30.08F
FOREST CITY *    N/A     63  45  51 SW7       30.07S
WEBSTER CITY * SUNNY     64  41  42 SW10      30.07F
IOWA FALLS *     N/A     64  44  48 SW12      30.11F
$$

IAZ007>011-017>019-026>030-037>042-050>054-066-171800-
   NORTHEAST IOWA

CITY           SKY/WX    TMP DP  RH WIND       PRES   REMARKS
CEDAR RAPIDS   SUNNY     67  42  40 SW15      30.14F
CHARLES CITY * SUNNY     64  41  42 VRB7G13   30.09S
CLINTON *      SUNNY     68  44  42 SW16G25   30.17F
DECORAH *      SUNNY     63  45  51 VRB3G14   30.08S
DUBUQUE        SUNNY     64  44  48 SW18      30.13F
MONTICELLO *   SUNNY     66  43  42 SW14G20   30.13F
OELWEIN *      SUNNY     64  45  48 W12       30.11S
WATERLOO       SUNNY     63  43  48 S12       30.10F
$$

IAZ064-065-067-068-078-171800-
   EAST CENTRAL IOWA

CITY           SKY/WX    TMP DP  RH WIND       PRES   REMARKS
DAVENPORT      SUNNY     66  42  41 SW17G24   30.19F
IOWA CITY      LGT RAIN  68  42  38 SW15G24   30.17F
MUSCATINE *    SUNNY     66  43  42 S15G23    30.19S
QUAD CITIES    SUNNY     67  43  41 SW15G24   30.18F
$$

IAZ062-063-075>077-085>089-095>099-171800-
   SOUTHEAST IOWA

CITY           SKY/WX    TMP DP  RH WIND       PRES   REMARKS
BURLINGTON     SUNNY     65  43  44 S17G24    30.21F
FAIRFIELD *    SUNNY     68  39  34 SW16G24   30.18F
FORT MADISON * SUNNY     66  43  42 S13G18    30.22F
KEOKUK *       SUNNY     66  43  42 SW10G17   30.21F
OSKALOOSA *      N/A     68  42  39 SW15      30.17S
OTTUMWA        SUNNY     67  44  43 S16G23    30.16F
WASHINGTON *   SUNNY     68  43  40 SW17G25   30.19S
$$

ABBREVIATIONS USED IN REMARKS
   TC - TEMPERATURES IN CELSIUS
  WCI - WIND CHILL INDEX
   HX - HEAT INDEX
  VSB - VISIBILITY
$$





USA.gov is the U.S. government's official web portal to all federal, state and local government web resources and services.